Location: Dappach
(48.9767°N, 9.6998°E)
Time: 15:44:12
(UTC+00:00)

Genesis I - Pass Details

Date: 14 August 2024
Orbit: 410 x 454 km, 64.5° (Epoch: 18 September)

Event Time Altitude Azimuth Distance (km) Brightness Sun altitude
Exits shadow 02:30:12 27° 257° (WSW) 890 3.9 -14.8°
Maximum altitude 02:31:42 46° 315° (NW) 614 3.5 -14.6°
Drops below altitude 10° 02:35:09 10° 30° (NNE) 1,600 6.9 -14.2°
Sets 02:37:21 0° 37° (NE) 2,489 8.4 -14.0°
